H-2A R/B

基本信息
目录编号:
28932
目录名称:
H-2A R/B
国际标识:
2006-002B
轨道中心:
EARTH
物体状态:
在轨
发射日期:
2006-01-24 UTC
国别:
日本 (JP)
轨道信息
数据来源: 国际轨道数据
星历时间: 2026-07-14T05:05:18+0800
半长轴: 6888.716km
偏心率: 0.0050737
轨道倾角: 98.259°
近地点辐角: 170.475°
升交点赤经: 353.133°
平近点角: 189.746°
近地点: 475.627km
远地点: 545.531km
周期: 94.835分钟
每日圈数: 15.184321
详细信息
发射场:
TNSTA
轨道高度:
LEO
数据来源:
AOE Integration Group
参考系:
TEME
时间系统:
UTC
历元类型:
SGP4
2D轨道图
3D轨道图
轨道高度分析图
轨道倾角分析图
轨道综合分析图
查看轨道综合分析图